Current Version              Previous Version:    01  02  03  04  05  06  07  08  09  10  11  12  13  14  15  16  17  18  19  20  21  22  23  24  25  26  27  28  29  30  
   31  32  33  34  35  36  37  38  39  40  41  42  43  44  45  46  47  48  49  50  51  52  53  54  55  56  57  58  59  60  

[Printable]
220
ASUS44 KFWD 191515
RWRTX
NORTH TEXAS HOURLY WEATHER ROUNDUP
NATIONAL WEATHER SERVICE FORT WORTH TX
1000 AM CDT FRI SEP 19 2014

NOTE: "FAIR" INDICATES FEW OR NO CLOUDS BELOW 12,000 FEET WITH NO
SIGNIFICANT WEATHER AND/OR OBSTRUCTIONS TO VISIBILITY.

TXZ118-119-191600-
DALLAS/FORT WORTH METROPLEX

CITY           SKY/WX    TMP DP  RH WIND       PRES   REMARKS
DFW AIRPORT    PTSUNNY   75  69  81 E7        29.97R
DALLAS LOVE    CLOUDY    75  70  84 SE9       29.97R
FTW MEACHAM    CLOUDY    76  69  79 E9        29.97R
DAL-EXECUTIVE  CLOUDY    74  70  87 SE7       29.97R
FTW-ALLIANCE   PTSUNNY   78  67  68 E10       29.97R
FTW-NAS-JRB    CLOUDY    78  67  68 E7        30.01R
FTW-SPINKS     CLOUDY    72  70  94 E8        29.99R FOG
ARLINGTON      CLOUDY    74  69  85 E7        29.97R
GRAND PRAIRIE  CLOUDY    73  70  88 MISG      29.99
MESQUITE       CLOUDY    73  70  88 E7        29.98R
LANCASTER      CLOUDY    72  69  90 E6        29.98R FOG
$$

TXZ091>094-102>105-117-120-121-131>134-191600-
NORTH CENTRAL TEXAS

CITY           SKY/WX    TMP DP  RH WIND       PRES   REMARKS
SHRMAN/DENISON MOSUNNY   75  68  79 E7        30.01R
GAINESVILLE    PTSUNNY   73  68  82 E7        30.01R
BOWIE          PTSUNNY   74  68  82 SE7       30.00R
BRIDGEPORT     MOSUNNY   73  67  79 E5        30.00R
DECATUR        SUNNY     75  67  77 E7        29.99R
DENTON         SUNNY     76  67  73 E6        29.98R
MCKINNEY       CLOUDY    73  69  87 SE7       29.99R
GREENVILLE     CLOUDY    72  70  94 SE5       29.99R
ROCKWALL       CLOUDY    71  70  96 E7        29.97S FOG
TERRELL        CLOUDY    74  70  87 E7        29.99R
WAXAHACHIE     FOG       71  70  97 E5        29.98S VSB 1/2
CLEBURNE       CLOUDY    73  72  94 VRB6      29.99R
GRANBURY       CLOUDY    72  69  90 E5        29.99R FOG
$$

TXZ083>090-098>101-113>116-127>130-139>142-154-155-191600-
WESTERN NORTH TEXAS

CITY           SKY/WX    TMP DP  RH WIND       PRES   REMARKS
WICHITA FALLS  MOSUNNY   76  70  82 SE9       29.98R
WF-KICKAPOO    SUNNY     77  69  75 SE8       29.99R
VERNON         CLOUDY    72  70  95 E5        29.99S
ABILENE        PTSUNNY   73  67  81 E8        30.00R
BRECKENRIDGE   CLOUDY    74  69  84 SE6       29.98S
GRAHAM         PTSUNNY   75  67  75 SE3       29.97S
MINERAL WELLS  PTSUNNY   76  67  73 E7        29.97R
STEPHENVILLE   CLOUDY    74  66  75 E7        30.01R
COMANCHE       CLOUDY    72  72  99 E5        29.98R
BROWNWOOD      CLOUDY    73  70  88 E7        29.98R
COLEMAN        CLOUDY    73  68  86 E7        29.99S
BRADY          CLOUDY    72  72 100 E6        29.97R
$$

TXZ143>147-156>162-174-175-191600-
CENTRAL TEXAS

CITY           SKY/WX    TMP DP  RH WIND       PRES   REMARKS
WACO           FOG       72  71  97 NE3       29.96R VSB 1
WACO-TSTC      CLOUDY    73  73 100 CALM      29.97R FOG
WACO-MCGREGOR  CLOUDY    72  68  88 NE5       29.98R
HILLSBORO      CLOUDY    74  70  86 E7        29.97R FOG
CORSICANA      LGT RAIN  75  71  87 E7        29.97S
MEXIA          CLOUDY    74  73  96 E7        29.95R
HEARNE         CLOUDY    75  73  91 E5        29.95R
CAMERON        CLOUDY    75  74  97 E6        29.94S FOG
TEMPLE         CLOUDY    72  68  88 NE6       29.96R VSB 1
KILLEEN        NOT AVBL
KILLEEN-SKYLRK CLOUDY    73  68  83 NE7       29.96R
FORT HOOD      CLOUDY    75  72  90 NE5       29.97R
GATESVILLE     PTSUNNY   72  72 100 E3        29.99R FOG
HAMILTON       CLOUDY    73  73 100 E6        29.99R
LAMPASAS       CLOUDY    72  71  97 E7        29.97R FOG
$$

TXZ095>097-106>112-122>126-135>138-148>153-164>167-191600-
EAST TEXAS

CITY           SKY/WX    TMP DP  RH WIND       PRES   REMARKS
PARIS          CLOUDY    73  64  73 E7        30.01R
SULPHUR SPRNGS CLOUDY    74  71  90 E6        30.01S
MOUNT PLEASANT CLOUDY    73  71  92 NE3       30.01R
GILMER         CLOUDY    73  73 100 NE6       30.00R FOG
MINEOLA        MOSUNNY   77  72  83 E5        29.99S
TYLER          SUNNY     78  68  71 E8        29.98R
LONGVIEW       SUNNY     78  69  73 E5        29.97R
MARSHALL       CLOUDY    76  73  90 CALM      30.00R
ATHENS         CLOUDY    75  70  83 E5        29.96S
PALESTINE      CLOUDY    75  72  91 CALM      29.98R
JACKSONVILLE   SUNNY     78  69  75 NE8       30.00R
HENDERSON      SUNNY     78  69  73 CALM      29.98S
NACOGDOCHES    PTSUNNY   75  70  83 E7        29.98R
LUFKIN         CLOUDY    79  72  79 E8        29.96R
$$

SUPPLEMENTAL OBSERVATIONS (CENTRAL)

CITY           SKY/WX    TMP DP  RH WIND       PRES   REMARKS
LAKE TEXOMA      N/A     72  68  88 E7          N/A
CADDO GRASSLND   N/A     73  68  83 E3          N/A
PAT MAYSE LAKE   N/A     73  70  88 NE5         N/A
GREENVILLE       N/A     79  70  73 E7          N/A
CEDAR HILL       N/A     75  70  83 SE2         N/A
PALESTINE        N/A     75  70  83 SE3         N/A
MCGREGOR         N/A     72  70  94 NE5         N/A
TEMPLE           N/A     73  72  94 E7          N/A
$$

SUPPLEMENTAL OBSERVATIONS (WEST)

CITY           SKY/WX    TMP DP  RH WIND       PRES   REMARKS
MILLERS CREEK    N/A     73  70  88 SE6         N/A
POSSUM KINGDOM   N/A     75  66  73 E7          N/A
LBJ GRASSLAND    N/A     79  68  69 E6          N/A
GRANBURY         N/A     72  66  83 SE5         N/A
HAMBY            N/A     72  66  83 SE7         N/A
IVIE RESERVOIR   N/A     72  68  88 E7          N/A
COLORADO BEND    N/A     72  70  94 E8          N/A
$$

SUPPLEMENTAL OBSERVATIONS (EAST)

CITY           SKY/WX    TMP DP  RH WIND       PRES   REMARKS
CLARKSVILLE      N/A     72  66  83 E3          N/A
TEXARKANA        N/A     72  68  88 NE6         N/A
LINDEN           N/A     73  70  88 E2          N/A
GILMER           N/A     73  68  83 NE3         N/A
HENDERSON        N/A     81  70  69 E5          N/A
LUFKIN           N/A     77  72  83 MISG        N/A
N SABINE NF      N/A     81  75  83 MISG        N/A
S SABINE NF      N/A     82  70  65 E3          N/A
$$

SUPPLEMENTAL OBSERVATIONS ARE A COLLECTION OF AUTOMATED INSTRUMENTS
THAT ARE MAINTAINED BY A VARIETY OF FEDERAL AND STATE AGENCIES.
CERTAIN ELEMENTS...SUCH AS HUMIDITY VALUES AND SUSTAINED WIND
SPEEDS...MAY BE APPROXIMATED.